Weather Roundup
Issued by NWS Chicago, IL

Home | Current Version | Previous Version | Graphics & Text | Print | Product List | Glossary On
Versions: 1 2 3 4 5 6 7 8 9 10 11 12 13 14 15 16 17 18 19 20 21 22 23 24 25 26 27 28 29 30 31 32 33 34 35 36 37 38 39 40 41 42 43 44 45 46 47 48 49 50
838
NZUS59 KLOT 042303
HRRLOT

CHICAGO AREA WEATHER ROUNDUP
NATIONAL WEATHER SERVICE CHICAGO/ROMEOVILLE IL
600 PM CDT WED MAY 04 2016

NOTE: "FAIR" INDICATES FEW OR NO CLOUDS BELOW 12,000 FEET WITH NO
SIGNIFICANT WEATHER AND/OR OBSTRUCTIONS TO VISIBILITY.

* THESE STATIONS ARE NOT UNDER NWS QUALITY CONTROL. THEY ALSO MAY NOT
  REPORT WEATHER SUCH AS PRECIPITATION OR FOG.

ILZ005-006-012>014-019>023-050000-
NORTHEAST ILLINOIS

CITY           SKY/WX    TMP DP  RH WIND       PRES   REMARKS
OHARE          CLOUDY    49  38  65 NE12      29.82R
MIDWAY         CLOUDY    49  36  61 NE10      29.83R
AURORA         CLOUDY    55  40  56 NW18      29.82R
LANSING*       CLOUDY    45  36  70 N12       29.83S
WAUKEGAN       CLOUDY    44  37  76 N16G23    29.83R
DUPAGE AIRPORT CLOUDY    53  37  54 N12       29.81R
WHEELING       CLOUDY    46  37  71 NE13      29.84R
$$

WIZ051-052-058>065-066-070>072-050000-
SOUTHEAST WISCONSIN

CITY           SKY/WX    TMP DP  RH WIND       PRES   REMARKS
MILWAUKEE      PTSUNNY   43  35  73 N16G23    29.84R
KENOSHA*       CLOUDY    46  37  71 NE10G23   29.83R
RACINE*        CLOUDY    44  35  70 N17G24    29.85R
BURLINGTON     CLOUDY    52  34  50 N10G20    29.82R
WAUKESHA       CLOUDY    50  34  53 N15G24    29.83R
$$

INZ001>003-010>013-019-020-050000-
NORTHWEST INDIANA

CITY           SKY/WX    TMP DP  RH WIND       PRES   REMARKS
GARY*          CLOUDY    46  43  87 N12G23    29.84R
MICHIGAN CITY* NOT AVBL
RENSSELAER*    NOT AVBL
VALPARAISO     LGT RAIN  43  37  79 N12G20    29.81R
$$

LMZ740>746-050000-
SOUTHERN LAKE MICHIGAN

STATION/POSITION TIME  SKY/WX   TEMP WIND        PRES    VSBY
                                AIR  DIR/SP/G
                 (UTC)          (F)  (DEG/KT/KT) (MB)    (MI)
HARRISON CRIB    2200            44  350/ 14/ 16   N/A
BURNHAM HARBOR   2300            44  340/ 13/ 16   N/A
CALUMET HARBOR   2200            44              1009.6R
BURNS HARBOR     2200            44  360/ 14/ 21 1009.8R
MICHIGAN CITY    2200            43  340/ 22/ 24   N/A
$$

ABBREVIATIONS USED IN REMARKS
   TC - TEMPERATURE IN CELSIUS
  WCI - WIND CHILL INDEX
   HX - HEAT INDEX
  VSB - VISIBILITY
$$




USA.gov is the U.S. government's official web portal to all federal, state and local government web resources and services.